Location: Bratislava
(0.0000°N, 17.1167°E)
Time: 04:20:08
(UTC+01:00)

SL-8 R/B - Pass Details

Date: 24 January 2021
Orbit: 657 x 667 km, 48.4° (Epoch: 04 March)

Event Time Altitude Azimuth Distance (km) Brightness Sun altitude
Rises 19:26:05 0° 208° (SSW) 2,978 7.8 -19.4°
Reaches altitude 10° 19:28:30 10° 202° (SSW) 2,066 6.8 -20.0°
Maximum altitude 19:33:04 45° 129° (SE) 889 4.1 -21.0°
Enters shadow 19:33:30 44° 112° (ESE) 907 4.0 -21.2°
